Starlink 4102

operational
NORAD ID: 53143 Int'l Des: 2022-083 Owner: SPXS Country: US Constellation: starlink
LEOCIRCULAR

About Starlink 4102

Description loading...

Live Position

Loading 3D Globe...

Upcoming Passes

Altitude History

Altitude vs Time

uPlot chart will show altitude changes over time

Two-Line Element Set

1 53143U 22083M 25296.65708125 .00000744 00000-0 64835-4 0 9994
2 53143 53.2180 69.2809 0001464 92.9182 267.1978 15.08837725180530
Epoch: Oct 23, 2025 • Age: 23 hours

Current Status

Altitude 544.7 km
Velocity 7.60 km/s
Sub-Earth Point 50.43°N, 69.78°W
Launch Date Jul 17, 2022
Age 3.2 years
Type internet

Technical Details

Classification Payload
Mass 297.00 kg
Dry Mass 275.00 kg
Total Mass 297.00 kg
Length 0.20 m
Diameter 2.80 m
Span 9.00 m
Shape Box + pan
Manufacturer SPXS
Bus Type Starlink
Phase Status In Orbit
Owner/State SPXS/US

Large Constellations

Loading constellations...